World > North America > United States > Texas

Plano, Texas Regional Weather

Lat: 33.05N, Lon: 96.75W
Wx Zone: TXZ104
Feedback

Plano, TX Regional Weather

Expires:201907232200;;526243
ASUS44 KFWD 232110
RWRTX 
NORTH TEXAS HOURLY WEATHER ROUNDUP
NATIONAL WEATHER SERVICE FORT WORTH TX
400 PM CDT TUE JUL 23 2019

NOTE: "FAIR" INDICATES FEW OR NO CLOUDS BELOW 12,000 FEET WITH NO
SIGNIFICANT WEATHER AND/OR OBSTRUCTIONS TO VISIBILITY.


TXZ091>094-102>105-117-120-121-131>134-232200-
NORTH CENTRAL TEXAS
  
CITY           SKY/WX    TMP DP  RH WIND       PRES   REMARKS
SHRMAN/DENISON PTSUNNY   90  59  35 N12G22    30.14S                  
GAINESVILLE    FAIR      87  55  34 NE10G17   30.15F                  
BOWIE          FAIR      87  57  36 NE8       30.15F                  
BRIDGEPORT     PTSUNNY   87  54  32 NE3       30.15S                  
DECATUR        FAIR      87  55  33 N9G18     30.14F                  
DENTON         FAIR      88  57  34 NE12G18   30.11F                  
MCKINNEY       FAIR      90  58  33 N8G20     30.09F                  
BONHAM         PTSUNNY   85  60  42 N12       30.11F                  
GREENVILLE     PTSUNNY   90  55  31 NE9       30.09F                  
ROCKWALL       PTSUNNY   88  59  37 NE9G18    30.09F                  
TERRELL        FAIR      90  60  36 NE10      30.08F                  
WAXAHACHIE     FAIR      89  58  35 N10G18    30.10F                  
CLEBURNE       FAIR      88  55  33 N17G23    30.11F                  
GRANBURY       FAIR      89  52  28 N10G21    30.12S                  
$$


SKY/WX - Weather  TMP - Temperature  DP - Dew Point  RH - Relative Humidity
WIND - Wind Direction/Speed PRES - Barometric Pressure VSB - Visibility
WCI - Wind Chill Index E13G22 Wind - East Wind 13 mph/Gusts of 22 mph